Barking Sands, HI

4:14 AM HST on September 19, 2017 (GMT -1000)
Barking Sands PMRF

Weather History for PHBK - July, 2013

Change the Weather History Date:

Monday, July 29, 2013

  Actual Average Record
Temperature  
Mean Temperature 81 °F -  
Max Temperature 89 °F 88 °F 91 °F (1969)
Min Temperature 73 °F 67 °F 65 °F (1950)
Cooling Degree Days 16    
Growing Degree Days 31 (Base 50)    
Moisture  
Dew Point 70 °F    
Average Humidity 68    
Maximum Humidity 79    
Minimum Humidity 53    
Precipitation  
Precipitation 0.00 in - - ()
Sea Level Pressure  
Sea Level Pressure 29.93 in    
Wind  
Wind Speed 6 mph (North)    
Max Wind Speed 22 mph    
Max Gust Speed 26 mph    
Visibility 10 miles    
Events      
Averages and records for this station are not official NWS values.
T = Trace of Precipitation, MM = Missing Value Source: NWS Daily Summary

Daily Weather History Graph

Daily Weather History Graph

Search for Another Location

Airport or City:

Trip Planner

Search our weather history database for the weather conditions in past years. The results will help you decide how hot, cold, wet, or windy it might be!

Date:

Astronomy

Jul. 29, 2013 Rise Set
Actual Time 6:10 AM HST 7:20 PM HST
Civil Twilight 5:46 AM HST 7:44 PM HST
Nautical Twilight 5:17 AM HST 8:12 PM HST
Astronomical Twilight 4:48 AM HST 8:42 PM HST
Moon No Moon Rise 1:00 PM HST (7/29)
Length of Visible Light 13h 58m
Length of Day
13h 10m
Waning Gibbous, 48% of the Moon is Illuminated
Jul 29
Waning Gibbous
Aug 6
New
Aug 14
First Quarter
Aug 20
Full
Aug 27
Last Quarter

Hourly Weather History & Observations

Time (HST) Temp. Heat Index Dew Point Humidity Pressure Visibility Wind Dir Wind Speed Gust Speed Precip Events Conditions
12:56 AM 77.0 °F - 63.0 °F 62% 29.97 in 10.0 mi East 3.5 mph - N/A   Clear
1:56 AM 75.0 °F - 62.1 °F 64% 29.96 in 10.0 mi East 3.5 mph - N/A   Clear
2:56 AM 73.0 °F - 62.1 °F 68% 29.94 in 10.0 mi ENE 3.5 mph - N/A   Clear
3:56 AM 73.0 °F - 63.0 °F 71% 29.94 in 10.0 mi SE 5.8 mph - N/A   Partly Cloudy
4:56 AM 75.0 °F - 64.9 °F 71% 29.94 in 10.0 mi Calm Calm - N/A   Clear
5:56 AM 73.9 °F - 64.0 °F 71% 29.95 in 10.0 mi North 6.9 mph - N/A   Clear
6:56 AM 77.0 °F - 64.9 °F 66% 29.95 in 10.0 mi North 4.6 mph - N/A   Clear
7:56 AM 80.1 °F 83.2 °F 70.0 °F 71% 29.96 in 10.0 mi Calm Calm - N/A   Clear
8:56 AM 82.0 °F 86.7 °F 72.0 °F 71% 29.97 in 10.0 mi SSW 9.2 mph - N/A   Clear
9:56 AM 81.0 °F 85.2 °F 72.0 °F 74% 29.98 in 10.0 mi SW 5.8 mph - N/A   Mostly Cloudy
10:56 AM 82.9 °F 88.0 °F 72.0 °F 69% 29.96 in 10.0 mi West 5.8 mph - N/A   Partly Cloudy
11:56 AM 87.1 °F 93.6 °F 72.0 °F 61% 29.94 in 10.0 mi NNW 12.7 mph - N/A   Partly Cloudy
12:56 PM 89.1 °F 94.1 °F 70.0 °F 53% 29.92 in 10.0 mi Variable 6.9 mph 16.1 mph N/A   Mostly Cloudy
1:56 PM 88.0 °F 93.8 °F 71.1 °F 57% 29.90 in 10.0 mi North 8.1 mph 18.4 mph N/A   Partly Cloudy
2:56 PM 89.1 °F 97.0 °F 73.0 °F 59% 29.89 in 10.0 mi NNW 13.8 mph - N/A   Scattered Clouds
3:56 PM 88.0 °F 95.6 °F 73.0 °F 61% 29.88 in 10.0 mi WSW 9.2 mph 20.7 mph N/A   Mostly Cloudy
4:56 PM 86.0 °F 92.2 °F 72.0 °F 63% 29.88 in 10.0 mi SW 5.8 mph - 0.00 in   Scattered Clouds
5:56 PM 86.0 °F 92.2 °F 72.0 °F 63% 29.87 in 10.0 mi North 15.0 mph 21.9 mph N/A   Scattered Clouds
6:56 PM 82.9 °F 89.4 °F 73.9 °F 74% 29.88 in 10.0 mi North 21.9 mph 26.5 mph N/A   Mostly Cloudy
7:56 PM 81.0 °F 85.8 °F 73.0 °F 77% 29.91 in 10.0 mi NE 9.2 mph - N/A   Mostly Cloudy
8:56 PM 81.0 °F 85.2 °F 72.0 °F 74% 29.93 in 10.0 mi Calm Calm - N/A   Scattered Clouds
9:56 PM 81.0 °F 85.8 °F 73.0 °F 77% 29.92 in 10.0 mi Calm Calm - N/A   Scattered Clouds
10:56 PM 80.1 °F 84.2 °F 73.0 °F 79% 29.90 in 10.0 mi North 6.9 mph - N/A   Partly Cloudy
11:56 PM 80.1 °F 83.8 °F 72.0 °F 76% 29.89 in 10.0 mi NNE 10.4 mph - N/A   Overcast